Theta_e
293 295 297 299 304 307 310 302 307 304 304 306 302 307 306 305 305 304 303 304 305 305 305 308 304 305 305 303 305 308 304 303 308 307 306 307 309 310 311 317 319 317 320 324
293 297 300 301 305 307 306 304 304 303 303 308 304 304 304 303 304 302 302 303 303 304 305 305 303 303 301 302 307 310 309 308 309 304 305 306 308 308 312 312 312 320 323 323
295 299 301 302 305 307 306 303 306 303 301 299 303 305 304 305 302 301 301 302 302 303 304 302 299 300 300 301 305 308 306 308 308 311 308 307 311 311 315 317 319 322 319 318
296 298 300 303 306 309 305 300 303 300 304 303 302 303 303 303 304 301 300 300 302 303 304 302 301 299 302 302 302 308 307 309 308 308 308 310 312 314 314 315 315 320 317 314
296 297 300 303 306 305 303 305 303 299 301 300 301 302 303 302 301 301 300 302 301 302 301 300 300 300 301 302 302 306 306 309 308 310 312 314 315 313 313 314 315 314 313 313
296 299 301 304 307 305 302 299 299 301 297 299 302 301 302 301 301 300 300 299 301 302 301 300 300 299 299 300 302 305 308 308 308 310 311 313 317 312 313 313 312 313 313 310
298 303 304 303 307 306 305 301 299 301 300 300 300 301 301 301 300 302 300 300 301 300 298 298 300 300 300 302 303 301 308 308 308 311 313 319 315 310 311 313 311 309 310 310
303 305 306 304 307 306 305 301 300 300 301 299 301 301 301 301 301 301 301 300 299 297 301 304 305 304 305 304 305 305 304 307 309 311 315 317 314 310 311 312 314 309 309 309
304 306 306 304 305 304 304 300 300 300 302 300 298 301 300 301 302 301 300 299 295 299 301 303 305 304 303 303 302 303 304 304 308 311 315 316 311 306 306 309 317 309 308 308
304 303 305 304 303 303 303 300 301 299 300 297 297 300 301 299 299 300 299 298 297 297 301 302 303 303 301 302 303 303 302 304 307 309 312 312 306 306 307 315 314 308 307 307
303 304 303 303 303 303 303 299 301 300 298 297 297 297 298 297 296 299 297 296 299 297 299 301 301 301 300 300 301 303 302 304 306 306 308 310 304 306 312 308 306 306 306 306
301 301 302 302 302 303 302 299 299 299 299 299 297 297 297 297 296 297 296 297 297 296 298 298 299 301 301 299 301 300 302 303 304 304 305 304 305 305 305 306 306 306 306 306
302 301 301 301 302 303 301 297 298 298 299 299 299 298 297 297 297 297 299 296 296 296 294 298 299 301 298 302 303 302 302 303 305 305 305 305 305 306 304 304 305 305 305 306
300 301 301 301 300 299 298 298 297 298 296 300 300 298 298 297 298 297 297 295 295 294 296 299 300 301 298 302 301 302 304 304 305 305 304 305 306 305 305 305 305 306 306 306
298 299 299 298 298 298 298 298 298 297 298 300 299 297 298 298 297 297 297 296 295 296 299 299 300 298 300 300 300 304 303 304 305 306 304 304 305 305 305 305 306 306 306 307
299 299 299 299 299 299 298 298 298 299 299 299 301 297 298 299 299 297 295 294 293 295 298 297 297 296 300 303 304 303 303 303 303 304 303 304 304 304 304 305 306 306 306 306
299 299 299 299 298 297 296 297 299 299 300 299 300 301 298 298 298 297 297 295 294 296 297 299 299 300 300 302 306 303 304 304 304 304 305 307 307 307 307 307 307 307 307 307
300 300 300 300 300 301 299 300 301 300 299 297 301 300 300 297 300 301 295 298 297 297 298 298 301 301 303 306 304 304 304 305 305 305 306 307 307 307 308 309 309 308 307 308
300 300 300 300 299 298 298 298 300 301 300 300 299 301 302 297 298 298 298 296 303 296 302 302 300 304 307 305 303 303 304 305 305 305 306 306 308 309 309 309 309 308 306 305
298 296 296 294 296 295 296 297 297 296 295 297 299 296 301 299 299 299 300 298 300 304 302 298 302 304 301 301 301 302 304 305 305 306 306 306 307 307 308 307 306 305 306 304
296 295 294 295 295 295 293 294 296 295 300 297 296 297 300 296 300 300 297 300 299 304 303 303 302 305 301 300 301 301 303 304 304 304 304 304 305 306 307 305 304 304 304 304
296 295 295 294 292 292 295 292 296 299 300 297 299 298 298 297 295 301 298 300 300 305 298 301 303 303 299 300 301 301 303 304 304 304 304 303 304 304 305 304 303 302 302 302
296 294 291 293 291 292 296 296 299 300 298 297 298 300 298 297 297 299 300 301 301 299 301 302 303 300 299 300 300 302 302 303 304 303 303 303 303 303 304 305 302 301 301 301
294 294 293 294 294 297 296 298 299 296 297 299 298 298 301 297 300 298 301 299 300 302 298 301 302 300 299 298 299 302 303 303 303 303 303 303 303 303 302 302 303 302 299 300
296 295 296 296 294 295 295 295 296 295 296 297 298 298 299 299 300 299 300 301 302 302 300 301 300 299 297 297 298 300 301 302 302 303 303 303 303 303 302 302 302 303 303 303
296 295 297 295 297 296 296 298 297 294 295 296 298 299 301 300 301 301 299 301 302 303 300 299 298 296 295 296 297 298 297 297 297 300 302 303 303 303 303 303 302 301 301 301
297 296 294 296 296 296 295 295 295 293 296 299 299 299 300 299 301 301 299 302 301 300 299 298 297 296 295 294 295 296 295 295 296 296 298 302 302 303 302 304 302 301 300 300
Wind_Speed
3 4 5 4 2 6 4 4 3 14 4 5 2 3 4 3 4 8 5 4 4 2 4 4 3 3 1 8 4 4 3 1 2 2 6 4 7 6 2 2 2 2 2 2
2 4 3 1 3 5 4 3 1 8 1 4 3 3 5 4 3 6 3 4 4 3 3 4 2 2 1 6 6 4 4 3 2 1 0 4 5 7 6 3 1 2 2 2
3 3 3 1 3 6 3 3 3 4 5 2 6 6 4 4 4 4 6 4 3 3 4 7 3 1 2 4 7 9 1 3 3 2 1 3 6 13 10 2 0 4 3 5
2 4 3 4 5 8 4 3 2 0 2 5 5 3 3 3 3 3 6 4 5 2 3 2 2 1 1 4 9 5 3 4 2 3 4 1 3 10 12 7 4 2 4 8
2 4 3 7 9 9 6 4 4 4 3 1 4 6 3 3 3 4 3 6 5 4 4 1 3 1 2 2 5 4 4 2 2 0 4 6 7 13 11 9 11 13 10 7
2 2 5 10 13 7 5 4 5 5 4 2 2 2 3 3 6 4 5 5 3 6 2 3 2 1 3 3 2 5 3 4 2 3 1 3 3 8 8 9 17 7 10 6
1 3 7 12 16 5 8 6 7 5 4 4 3 4 5 5 2 6 2 3 2 2 1 4 7 6 4 4 6 3 4 4 2 1 2 3 2 8 3 11 15 15 11 13
4 2 8 15 17 7 23 10 6 4 5 4 9 11 9 8 8 4 4 3 2 1 4 1 3 3 2 6 8 7 4 2 3 2 3 4 3 6 6 5 9 16 14 15
6 8 12 19 18 16 19 19 15 8 8 4 2 4 2 2 3 2 2 2 3 2 2 3 3 4 3 4 4 4 3 5 2 2 1 3 3 12 13 8 4 16 15 14
12 18 24 25 25 18 15 14 16 13 6 3 2 3 2 2 3 3 1 4 4 2 3 4 4 2 3 4 5 6 5 4 6 4 3 4 8 17 11 1 4 16 14 13
15 18 16 17 14 20 27 16 10 14 5 8 7 4 3 2 2 2 0 0 3 3 5 3 2 3 4 2 3 3 5 4 4 4 3 2 16 7 4 4 10 12 13 11
20 21 21 21 22 26 37 25 31 25 15 8 20 26 18 4 2 4 2 3 2 2 4 2 2 3 2 3 2 3 2 2 1 2 2 8 11 11 9 6 10 9 11 12
22 22 22 23 28 24 39 49 42 37 17 15 10 6 21 19 8 4 4 1 3 3 1 3 2 5 0 3 3 3 1 2 1 4 3 13 12 4 1 8 11 13 11 11
23 22 22 20 38 49 46 25 17 16 12 5 5 15 14 19 20 24 19 14 10 7 3 3 3 3 1 1 1 2 2 4 5 3 3 12 1 5 13 15 16 13 13 9
36 38 46 45 38 34 34 30 19 11 9 5 4 3 13 22 22 22 19 16 6 3 3 4 3 1 0 0 1 1 3 3 3 2 9 8 13 15 17 17 16 15 12 12
49 49 46 41 34 17 6 5 22 30 26 5 4 1 5 11 16 22 19 10 7 3 3 2 2 1 2 2 2 2 6 7 7 4 8 13 18 21 23 13 16 20 16 13
32 26 21 15 8 6 12 5 10 12 9 4 4 3 4 5 5 5 6 9 4 3 2 3 2 2 1 1 4 12 13 11 8 5 8 7 7 8 22 21 21 17 14 11
29 31 34 38 36 29 19 20 14 11 12 8 4 3 1 5 3 2 6 3 2 5 2 1 2 0 1 2 10 13 13 12 7 14 10 9 16 17 16 16 13 6 4 4
30 31 28 17 11 7 5 15 19 19 8 4 3 4 3 2 2 1 2 2 3 2 3 3 2 3 5 6 11 11 12 8 9 12 9 11 10 12 14 15 14 7 5 5
25 8 8 3 4 8 4 4 4 5 7 4 3 0 3 2 1 2 1 2 2 2 2 2 3 2 1 5 7 8 11 11 15 13 16 16 16 15 15 14 14 7 3 4
3 5 2 7 6 3 6 3 4 2 3 3 2 2 4 1 3 3 1 2 1 2 1 1 2 4 3 7 7 13 16 15 15 11 10 11 11 11 12 15 16 13 9 7
9 20 11 5 6 4 6 2 1 3 3 2 4 3 3 2 1 3 1 2 1 2 1 2 2 2 3 6 6 11 16 15 17 19 18 18 19 18 15 15 16 14 12 10
8 7 5 4 3 7 4 4 1 3 4 4 3 4 2 2 2 3 2 3 2 3 2 2 2 2 4 5 4 10 14 15 11 18 23 22 20 22 20 19 20 16 14 14
4 4 5 3 2 2 1 2 4 2 5 8 5 3 2 2 2 1 3 2 3 2 2 3 2 2 3 2 2 3 9 17 17 14 17 20 22 20 21 23 22 20 20 17
4 4 4 2 2 3 2 3 3 3 5 5 4 4 2 2 3 1 3 3 2 2 3 4 3 3 1 2 1 2 4 7 11 17 16 15 21 19 20 23 23 22 22 22
3 4 4 2 3 2 2 7 6 1 3 2 3 3 3 2 3 2 2 6 4 4 3 4 5 4 2 3 4 5 7 9 9 9 12 14 13 18 17 21 23 22 21 20
3 3 2 2 4 4 2 2 2 4 2 2 2 3 2 3 2 2 2 3 3 5 4 4 6 4 5 3 1 4 8 10 11 10 9 12 13 8 16 18 22 24 23 19
Wind_Direction
295 330 341 330 153 144 133 96 62 355 14 52 40 72 114 110 8 32 67 82 74 74 39 58 88 85 33 345 312 14 355 50 340 338 334 17 64 46 61 -0 360 293 307 78
291 327 336 296 126 154 128 87 96 9 349 111 81 78 71 72 51 29 59 62 39 51 66 100 70 137 43 11 37 27 340 27 359 131 27 32 23 346 333 216 183 288 334 86
264 314 332 140 170 161 117 97 74 2 47 42 100 122 70 104 44 61 63 71 70 81 60 35 108 82 7 352 17 26 123 55 33 101 20 340 321 327 345 227 308 333 40 12
263 299 286 182 171 162 126 34 103 233 66 22 89 83 80 88 67 67 38 64 44 67 98 62 83 11 12 51 4 36 50 41 356 304 279 293 305 353 3 32 340 36 23 43
264 283 221 179 174 162 89 126 133 42 72 21 57 27 56 110 121 25 28 95 54 73 92 31 168 149 35 32 6 49 2 26 334 163 24 148 62 19 14 23 31 52 55 45
261 230 196 178 175 169 105 109 86 100 10 36 70 30 149 123 131 53 54 144 103 64 40 287 280 87 85 113 43 31 22 354 355 121 14 151 49 17 22 50 39 30 39 350
177 230 195 180 178 143 119 126 110 86 47 64 56 86 90 104 65 120 65 80 87 98 234 107 92 92 96 80 65 43 354 356 318 284 261 74 82 27 23 66 46 31 27 11
148 180 173 173 170 144 134 123 105 106 102 86 74 85 100 79 62 71 84 44 41 322 148 91 86 36 108 55 51 47 32 16 339 347 59 100 44 16 350 350 47 24 7 359
121 107 138 151 153 140 121 95 101 105 127 22 338 90 23 100 85 61 38 10 346 118 74 56 60 46 341 5 359 32 24 43 47 350 43 81 20 330 317 289 71 7 356 354
129 113 114 128 136 140 121 95 103 91 98 29 12 90 103 98 85 88 345 348 17 12 61 62 46 56 325 22 18 345 358 3 23 16 53 87 345 335 319 63 332 328 343 339
127 135 137 136 141 138 126 79 105 108 91 47 35 38 73 76 72 130 315 190 21 58 66 75 59 48 37 29 20 9 12 359 15 342 29 49 358 356 47 322 298 320 329 333
125 125 125 130 133 129 119 87 99 102 81 117 78 61 49 34 205 134 43 100 85 108 100 83 120 73 27 0 46 -0 17 15 326 307 307 344 330 288 268 292 310 320 319 324
131 131 129 131 133 128 125 112 109 95 96 66 48 10 26 43 37 188 116 92 131 87 53 123 103 81 275 36 25 305 5 317 267 301 26 331 311 198 84 334 317 314 316 314
131 132 129 128 125 118 119 116 110 91 99 90 41 53 41 43 66 76 90 111 93 105 72 79 79 90 324 83 327 296 308 320 322 287 330 331 75 236 315 319 319 316 322 317
122 123 120 115 115 110 95 80 80 112 110 125 139 72 42 51 68 77 83 85 82 58 66 58 67 81 293 200 237 302 350 342 349 294 302 287 274 291 305 308 309 316 315 318
119 118 119 119 118 108 88 65 60 93 111 106 90 93 30 36 55 56 50 45 57 69 74 84 87 21 332 42 336 293 301 283 267 262 278 272 274 287 293 293 303 306 299 286
118 113 107 99 96 114 71 121 133 113 92 91 103 86 8 10 34 39 30 35 57 61 92 56 55 37 28 16 0 325 329 326 319 295 298 282 261 288 310 307 306 304 286 262
111 107 103 98 93 88 72 84 103 94 92 73 101 88 61 17 44 64 5 44 34 30 79 89 28 335 14 37 328 333 339 345 341 344 336 289 288 301 315 330 337 347 42 116
120 116 108 102 52 58 90 90 79 68 75 104 87 132 145 47 69 60 59 23 63 322 51 40 330 3 43 313 322 327 340 343 320 332 349 355 2 352 354 360 6 26 45 81
129 115 59 43 45 103 96 66 32 22 7 43 82 124 106 111 109 74 80 30 69 75 29 317 47 60 275 344 309 315 333 347 6 14 10 357 357 357 355 359 353 355 11 53
80 67 81 108 74 73 39 56 59 344 57 38 97 101 119 7 112 119 15 120 79 92 55 24 45 11 333 341 330 341 343 3 23 25 22 17 5 360 358 1 7 18 30 33
114 116 111 84 37 47 77 30 344 45 129 131 120 130 113 113 111 102 101 102 122 105 81 80 86 282 315 344 344 339 351 353 19 29 26 24 26 20 18 14 12 16 27 36
89 67 63 51 324 56 106 152 107 131 162 155 140 114 109 116 70 78 123 88 94 140 51 88 194 298 311 341 354 350 6 12 1 30 30 28 27 29 28 22 22 23 27 31
66 74 56 66 358 77 132 129 135 119 124 122 111 90 96 107 77 118 92 84 155 93 112 157 185 242 304 314 323 359 2 7 7 7 22 28 24 23 29 33 29 29 31 29
76 64 77 73 104 57 88 108 102 78 127 114 107 81 87 66 101 46 121 144 143 178 162 168 170 187 213 90 108 9 342 352 350 356 359 13 30 26 27 33 36 38 41 41
60 63 84 74 78 53 68 115 109 110 117 99 61 99 82 79 122 133 167 151 181 168 161 152 158 165 161 96 84 55 26 11 358 352 354 351 5 25 27 34 37 37 35 37
50 39 35 101 85 110 109 110 96 134 76 84 102 87 98 122 110 142 189 180 163 149 144 158 167 158 150 129 19 355 1 11 12 1 348 347 355 2 26 31 38 37 34 29